Regional Weather Roundup
Issued by NWS

Home | Current Version | Previous Version | Graphics & Text | Print | Product List | Glossary On
Versions: 1 2 3 4 5 6 7 8 9 10 11 12 13 14 15 16 17 18 19 20 21 22 23 24 25 26 27 28 29 30 31 32 33 34 35 36 37 38 39 40 41 42 43 44 45 46 47 48 49 50
000
ASUS43 KDTX 210410
RWRMI
MICHIGAN HOURLY REGIONAL WEATHER ROUNDUP
NATIONAL WEATHER SERVICE DETROIT/PONTIAC MI
ISSUED BY NATIONAL WEATHER SERVICE GRAND RAPIDS MI
1200 AM EDT FRI JUL 21 2017

NOTE: "FAIR" INDICATES FEW OR NO CLOUDS BELOW 12,000 FEET WITH NO
SIGNIFICANT WEATHER AND/OR OBSTRUCTION TO VISIBILITY.

MIZ047>049-052>055-059>063-066>070-074>076-081>083-210500-
SOUTHEAST LOWER MICHIGAN

CITY           SKY/WX    TMP DP  RH WIND       PRES   REMARKS
ADRIAN         PTCLDY    73  71  93 CALM      29.97S
ALMA           CLEAR     72  68  88 W9        29.96R
ANN ARBOR      MOCLDY    71  71 100 SW3       29.95S
BAD AXE        PTCLDY    73  69  87 W3        29.94R
DETROIT CITY   CLEAR     79  70  74 W3        29.94S
DETROIT        MOCLDY    79  72  79 SW9       29.95S
FLINT          CLEAR     70  68  93 SW3       29.95S
GROSSE ILE     CLEAR     78  71  80 SW3       29.94S
HILLSDALE      CLEAR     70  68  94 CALM      29.98S FOG
HOWELL         CLEAR     72  69  90 CALM      29.96S

CITY           SKY/WX    TMP DP  RH WIND       PRES   REMARKS
JACKSON        CLEAR     73  70  90 CALM      29.97S
LANSING        CLEAR     74  68  81 CALM      29.96F
MASON          CLEAR     69  68  98 CALM      29.96F
MONROE         CLEAR     74  71  90 SW3       29.94S
MT. CLEMENS    CLEAR     74  69  83 CALM      29.93S
PONTIAC        CLEAR     74  70  87 CALM      29.95S
PORT HOPE        N/A     75  69  81 CALM      29.90S
PORT HURON     CLEAR     70  68  94 CALM      29.94S
TRI CITIES     CLEAR     75  71  87 W7        29.94S
YPSILANTI      CLEAR     75  72  90 SW3       29.96R
$$
MIZ043>046-050>051-056>058-064>065-071>073-077>080-210500-
SOUTHWEST LOWER MICHIGAN

CITY           SKY/WX    TMP DP  RH WIND       PRES   REMARKS
BATTLE CREEK   CLEAR     73  70  90 NW3       29.97F
BENTON HARBOR  CLEAR     68  65  90 CALM      29.96S
BIG RAPIDS     CLEAR     67  63  88 CALM      29.97S
COLDWATER      CLEAR     72  72 100 CALM      29.97S
HOLLAND        CLEAR     68  66  93 N3        29.97S
GRAND RAPIDS   PTCLDY    74  70  87 NW7       29.97S
KALAMAZOO      CLEAR     72  66  81 NW7       29.97S
MARSHALL       CLEAR     72  71  98 CALM      29.96S
MOUNT PLEASANT CLEAR     74  64  70 W3        29.95R
MUSKEGON       CLEAR     69  67  93 CALM      29.97S
STURGIS        CLEAR     71  70  97 CALM      29.96F
$$
MIZ016>042-210500-
NORTHERN LOWER MICHIGAN

CITY           SKY/WX    TMP DP  RH WIND       PRES   REMARKS
ALPENA         CLEAR     67  65  93 CALM      29.94R
BEAVER ISLAND  FOG       63  62  98 CALM      29.97S VSB 1/4
BELLAIRE       CLEAR     63  61  94 CALM      29.96S
CADILLAC       CLEAR     64  61  90 CALM      29.98S
CHARLEVOIX     CLEAR     68  67  96 W3        29.99S
GAYLORD        CLEAR     65  60  84 CALM      29.98S
HOUGHTON LAKE  CLEAR     61  57  87 CALM      29.97S
MANISTEE       CLEAR     64  63  96 CALM      29.95F
OSCODA         CLEAR     67  65  94 CALM      29.92S
PELLSTON       PTCLDY    65  64  97 W3        29.96R
TRAVERSE CITY  CLEAR     68  64  87 CALM      29.94S
LUDINGTON      CLOUDY    67  67 100 SW6       29.96R
$$
MIZ007>008-015-210500-
EASTERN UPPER MICHIGAN

CITY           SKY/WX    TMP DP  RH WIND       PRES   REMARKS
KINROSS        CLEAR     59  57  93 NW7       29.95S
MACKINAC ISLAN CLEAR     66  63  89 NW7       29.95R
NEWBERRY       CLEAR     58  57  97 SW3       29.96R
S. S. MARIE    CLEAR     62  57  83 W5        29.94R
$$
MIZ004>006-011>014-085-210500-
CENTRAL UPPER MICHIGAN

CITY           SKY/WX    TMP DP  RH WIND       PRES   REMARKS
MANISTIQUE     CLEAR     60  57  89 CALM      29.96R
ESCANABA       CLEAR     64  61  90 CALM      29.95S
MENOMINEE      CLEAR     73  65  75 N6        29.96R
SAWYER-GWINN   CLEAR     61  58  89 CALM      29.97F
$$
MIZ001>003-009>011-084-210500-
WESTERN UPPER MICHIGAN

CITY           SKY/WX    TMP DP  RH WIND       PRES   REMARKS
IRON MOUNTAIN  CLEAR     63  57  81 NW3       29.97S
HOUGHTON       CLEAR     62  58  86 NW7       29.94F
COPPER HARBOR    N/A     68  59  73 NW3       29.92S
IRONWOOD       CLEAR     65  63  93 CALM      29.99R
$$

ABBREVIATIONS USED IN REMARKS
   TC - TEMPERATURE IN CELSIUS
  WCI - WIND CHILL INDEX
   HX - HEAT INDEX
  VSB - VISIBILITY





USA.gov is the U.S. government's official web portal to all federal, state and local government web resources and services.